TimeEST,TemperatureF,Dew PointF,Humidity,Sea Level PressureIn,VisibilityMPH,Wind Direction,Wind SpeedMPH,Gust SpeedMPH,PrecipitationIn,Events,Conditions,WindDirDegrees,DateUTC
12:15 AM,68.2,62.8,83,30.02,10.0,SSW,4.6,-,N/A,,Clear,210,2013-12-07 05:15:00
12:35 AM,67.5,62.6,84,30.03,10.0,Calm,Calm,-,N/A,,Clear,0,2013-12-07 05:35:00
12:55 AM,66.6,62.2,86,30.03,10.0,Calm,Calm,-,N/A,,Scattered Clouds,0,2013-12-07 05:55:00
1:15 AM,66.4,62.2,86,30.04,10.0,Calm,Calm,-,N/A,,Mostly Cloudy,0,2013-12-07 06:15:00
1:35 AM,60.1,54.0,80,30.05,10.0,North,10.4,19.6,N/A,,Overcast,360,2013-12-07 06:35:00
1:55 AM,56.7,52.0,84,30.05,10.0,North,12.7,17.3,N/A,,Overcast,360,2013-12-07 06:55:00
2:15 AM,54.7,50.0,84,30.07,10.0,North,13.8,18.4,N/A,,Overcast,10,2013-12-07 07:15:00
2:35 AM,52.5,48.4,86,30.08,10.0,North,9.2,-,N/A,,Overcast,10,2013-12-07 07:35:00
2:55 AM,50.9,47.3,87,30.09,10.0,North,10.4,-,N/A,,Overcast,360,2013-12-07 07:55:00
3:15 AM,50.0,46.6,88,30.09,10.0,NNE,8.1,-,N/A,,Overcast,20,2013-12-07 08:15:00
3:35 AM,49.5,46.6,90,30.09,10.0,North,8.1,-,N/A,,Overcast,360,2013-12-07 08:35:00
3:55 AM,48.7,46.6,92,30.09,7.0,North,8.1,-,N/A,,Overcast,10,2013-12-07 08:55:00
4:15 AM,48.0,46.0,93,30.11,7.0,North,10.4,-,N/A,,Overcast,360,2013-12-07 09:15:00
4:35 AM,47.3,45.7,94,30.10,7.0,NE,3.5,-,N/A,,Overcast,50,2013-12-07 09:35:00
4:55 AM,47.7,46.0,94,30.12,5.0,North,8.1,-,0.01,,Overcast,360,2013-12-07 09:55:00
5:15 AM,47.3,45.5,93,30.15,5.0,North,9.2,16.1,0.04,,Overcast,350,2013-12-07 10:15:00
5:35 AM,46.6,44.6,93,30.15,7.0,North,12.7,18.4,0.09,,Overcast,360,2013-12-07 10:35:00
5:50 AM,46.0,44.1,93,30.14,10.0,North,11.5,17.3,0.10,,Overcast,360,2013-12-07 10:50:00
6:15 AM,45.0,42.3,90,30.20,10.0,North,10.4,24.2,0.01,,Overcast,350,2013-12-07 11:15:00
6:35 AM,44.6,41.9,90,30.21,10.0,North,15.0,21.9,0.01,,Overcast,10,2013-12-07 11:35:00
6:55 AM,43.2,40.5,90,30.23,7.0,North,12.7,20.7,0.01,,Overcast,360,2013-12-07 11:55:00
7:15 AM,41.9,39.2,90,30.24,10.0,North,17.3,-,N/A,,Overcast,360,2013-12-07 12:15:00
7:35 AM,40.8,38.5,91,30.26,5.0,North,12.7,19.6,0.01,,Overcast,360,2013-12-07 12:35:00
7:55 AM,40.6,38.3,91,30.29,7.0,North,9.2,19.6,0.01,,Overcast,350,2013-12-07 12:55:00
8:15 AM,40.5,38.8,94,30.27,5.0,North,11.5,17.3,0.02,,Overcast,360,2013-12-07 13:15:00
8:35 AM,41.0,38.8,92,30.29,10.0,North,11.5,-,0.02,,Overcast,360,2013-12-07 13:35:00
8:55 AM,41.0,39.2,93,30.30,10.0,North,10.4,-,0.02,,Overcast,360,2013-12-07 13:55:00
9:15 AM,41.0,38.8,92,30.32,10.0,North,9.2,19.6,N/A,,Overcast,360,2013-12-07 14:15:00
9:35 AM,41.0,38.8,92,30.33,10.0,North,11.5,-,N/A,,Overcast,360,2013-12-07 14:35:00
9:55 AM,41.2,38.5,90,30.34,10.0,North,11.5,18.4,N/A,,Overcast,10,2013-12-07 14:55:00
10:15 AM,41.4,39.0,91,30.34,10.0,North,11.5,-,N/A,,Overcast,10,2013-12-07 15:15:00
10:35 AM,41.5,38.7,89,30.35,10.0,North,11.5,17.3,N/A,,Overcast,360,2013-12-07 15:35:00
10:55 AM,42.1,39.0,89,30.35,10.0,North,10.4,-,N/A,,Overcast,10,2013-12-07 15:55:00
11:15 AM,41.9,39.0,90,30.34,10.0,North,9.2,-,N/A,,Overcast,360,2013-12-07 16:15:00
11:35 AM,42.4,39.4,89,30.34,10.0,North,10.4,-,N/A,,Overcast,10,2013-12-07 16:35:00
11:55 AM,42.8,39.2,87,30.34,10.0,North,10.4,-,N/A,,Overcast,360,2013-12-07 16:55:00
12:15 PM,42.8,38.8,86,30.34,10.0,North,10.4,-,N/A,,Overcast,10,2013-12-07 17:15:00
12:35 PM,42.4,38.3,85,30.34,10.0,North,12.7,-,N/A,,Overcast,10,2013-12-07 17:35:00
12:55 PM,42.8,38.1,84,30.34,10.0,North,9.2,16.1,N/A,,Overcast,360,2013-12-07 17:55:00
1:15 PM,43.2,37.9,82,30.34,10.0,North,11.5,-,N/A,,Overcast,360,2013-12-07 18:15:00
1:35 PM,43.3,37.8,81,30.33,10.0,North,10.4,16.1,N/A,,Overcast,360,2013-12-07 18:35:00
1:55 PM,43.5,37.2,78,30.33,10.0,North,11.5,-,N/A,,Overcast,360,2013-12-07 18:55:00
2:15 PM,43.9,38.1,80,30.33,10.0,North,9.2,17.3,N/A,,Overcast,360,2013-12-07 19:15:00
2:35 PM,43.7,36.5,76,30.34,10.0,North,10.4,19.6,N/A,,Overcast,360,2013-12-07 19:35:00
2:55 PM,44.1,36.5,75,30.35,10.0,North,10.4,-,N/A,,Overcast,360,2013-12-07 19:55:00
3:15 PM,44.4,36.1,73,30.35,10.0,North,10.4,16.1,N/A,,Overcast,360,2013-12-07 20:15:00
3:35 PM,44.6,35.8,71,30.36,10.0,North,15.0,18.4,N/A,,Overcast,360,2013-12-07 20:35:00
3:55 PM,44.1,34.7,70,30.37,10.0,North,12.7,16.1,N/A,,Overcast,360,2013-12-07 20:55:00
4:15 PM,43.9,34.3,69,30.37,10.0,NNE,10.4,-,N/A,,Overcast,20,2013-12-07 21:15:00
4:35 PM,43.9,34.3,69,30.39,10.0,North,6.9,-,N/A,,Overcast,10,2013-12-07 21:35:00
4:55 PM,43.7,34.7,71,30.39,10.0,North,5.8,-,N/A,,Overcast,10,2013-12-07 21:55:00
5:15 PM,43.7,34.5,70,30.40,10.0,NNE,5.8,-,N/A,,Overcast,30,2013-12-07 22:15:00
5:35 PM,43.7,34.7,71,30.41,10.0,North,6.9,-,N/A,,Overcast,10,2013-12-07 22:35:00
5:55 PM,43.3,35.1,73,30.41,10.0,NNE,4.6,-,N/A,,Overcast,20,2013-12-07 22:55:00
6:15 PM,43.3,35.2,73,30.42,10.0,North,4.6,-,N/A,,Overcast,10,2013-12-07 23:15:00
6:35 PM,43.3,35.6,74,30.43,10.0,North,4.6,-,N/A,,Overcast,10,2013-12-07 23:35:00
6:55 PM,43.7,34.7,71,30.44,10.0,North,9.2,-,N/A,,Overcast,360,2013-12-07 23:55:00
7:15 PM,43.3,34.2,70,30.45,10.0,North,6.9,-,N/A,,Overcast,10,2013-12-08 00:15:00
7:35 PM,43.3,32.9,67,30.46,10.0,North,10.4,-,N/A,,Overcast,10,2013-12-08 00:35:00
7:55 PM,43.0,32.7,67,30.46,10.0,North,9.2,-,N/A,,Mostly Cloudy,10,2013-12-08 00:55:00
8:15 PM,42.8,32.2,66,30.46,10.0,North,8.1,-,N/A,,Scattered Clouds,10,2013-12-08 01:15:00
8:35 PM,42.4,32.2,67,30.47,10.0,North,9.2,-,N/A,,Mostly Cloudy,10,2013-12-08 01:35:00
8:55 PM,42.3,32.0,67,30.46,10.0,North,9.2,-,N/A,,Mostly Cloudy,10,2013-12-08 01:55:00
9:15 PM,41.9,32.0,68,30.47,10.0,North,10.4,-,N/A,,Mostly Cloudy,10,2013-12-08 02:15:00
9:35 PM,41.5,32.7,71,30.47,10.0,North,6.9,-,N/A,,Scattered Clouds,360,2013-12-08 02:35:00
9:55 PM,41.5,32.4,70,30.48,10.0,North,8.1,-,N/A,,Mostly Cloudy,360,2013-12-08 02:55:00
10:15 PM,41.2,32.7,72,30.48,10.0,North,9.2,-,N/A,,Mostly Cloudy,10,2013-12-08 03:15:00
10:35 PM,41.2,32.0,70,30.49,10.0,North,6.9,-,N/A,,Mostly Cloudy,360,2013-12-08 03:35:00
10:55 PM,41.0,32.0,70,30.48,10.0,North,8.1,-,N/A,,Overcast,360,2013-12-08 03:55:00
11:15 PM,41.0,32.0,70,30.48,10.0,North,8.1,-,N/A,,Overcast,10,2013-12-08 04:15:00
11:35 PM,40.8,31.8,70,30.48,10.0,North,8.1,-,N/A,,Overcast,360,2013-12-08 04:35:00
11:55 PM,40.6,31.6,70,30.48,10.0,North,8.1,-,N/A,,Overcast,10,2013-12-08 04:55:00